{"data":{"norad_id":46348,"intl_designator":"2020-062Z","name":"STARLINK-1553","alt_names":[],"object_type":"PAYLOAD","status":"ACTIVE","operator":null,"country":"US","launch_date":"2020-09-03","launch_site_code":"AFETR","launch_vehicle":null,"mission":null,"orbit_class":"UNKNOWN","rcs_meters":null,"size_class":null,"mass_kg":null,"dimensions":null,"purposes":["comms"],"wikipedia_slug":null,"has_3d_model":false,"image_url":null,"decayed_at":null,"tle_current":{"epoch":"2026-09-20T04:08:29.311872Z","epoch_age_seconds":50174,"freshness":"FRESH","line1":"1 46348U 20062Z   26263.17256148  .00025987  00000+0  51766-3 0  9996","line2":"2 46348  53.0325 104.9606 0003494  86.6594 273.4811 15.46746295335296","mean_motion":15.46746295,"eccentricity":0.0003494,"inclination_deg":53.0325,"raan_deg":104.9606,"arg_perigee_deg":86.6594,"mean_anomaly_deg":273.4811,"bstar":0.00051766,"rev_number":33529,"period_min":93.098655199947,"perigee_km":423.87430468489,"apogee_km":428.62921154906,"semimajor_km":6804.388758117,"source":"CELESTRAK","updated_at":"2026-09-20T09:00:38.584332Z"}}}